Location: Zagreb
(45.8000°N, 16.0000°E)
Time: 23:55:21
(UTC+01:00)

Oscar 11 - Visible Passes

Search period start: 30 October 2020 00:00
Search period end: 09 November 2020 00:00
Orbit: 612 x 626 km, 97.6° (Epoch: 30 October)

Date Brightness Start Highest point End Pass type
(mag) Time Alt. Az. Time Alt. Az. Time Alt. Az.
30 Oct 10.4 05:09:37 10° NE 05:12:04 15° E 05:14:30 10° SE visible
30 Oct 7.8 17:40:48 10° S 17:45:03 58° W 17:49:20 10° NNW visible
31 Oct 9.9 05:25:53 10° NE 05:29:15 22° E 05:32:35 10° SE visible
31 Oct 8.7 17:58:07 10° SSW 18:02:08 38° W 18:06:11 10° NNW visible
01 Nov 9.2 05:42:31 10° NNE 05:46:24 32° E 05:50:15 10° SSE visible
01 Nov 9.5 18:15:40 10° SSW 18:19:16 25° W 18:22:52 10° NW visible
02 Nov 8.3 05:59:18 10° NNE 06:03:29 48° E 06:07:38 10° S visible
02 Nov 10.1 18:33:32 10° SW 18:36:26 17° W 18:39:19 10° NW visible
03 Nov 7.0 17:12:43 10° SSE 17:17:00 73° ENE 17:21:19 10° N visible
03 Nov 10.6 18:52:08 10° WSW 18:53:38 12° W 18:55:08 10° WNW visible
04 Nov 10.6 04:59:27 10° ENE 05:00:55 11° E 05:02:23 10° ESE visible
04 Nov 7.3 17:29:43 10° S 17:34:00 75° WSW 17:38:20 10° NNW visible
05 Nov 10.2 05:15:15 10° NE 05:18:07 17° E 05:21:00 10° SE visible
05 Nov 8.1 17:46:54 10° S 17:51:04 48° W 17:55:16 10° NNW visible
06 Nov 9.6 05:31:42 10° NE 05:35:17 25° E 05:38:52 10° SSE visible
06 Nov 9.0 18:04:18 10° SSW 18:08:10 32° W 18:12:03 10° NNW visible
07 Nov 8.8 05:48:23 10° NNE 05:52:25 38° E 05:56:25 10° SSE visible
07 Nov 9.7 18:21:57 10° SW 18:25:18 22° W 18:28:39 10° NW visible
08 Nov 7.9 06:05:14 10° NNE 06:09:29 57° E 06:13:44 10° S visible
08 Nov 7.1 17:01:47 10° SSE 17:05:59 57° ENE 17:10:13 10° N visible
08 Nov 10.3 18:40:02 10° SW 18:42:29 15° W 18:44:56 10° NW visible
